Weather History for Gallup, NM

Change the Weather History Date:

Saturday, March 2, 2013

  Actual Average Record
Temperature  
Mean Temperature 44 °F -  
Max Temperature 66 °F 48 °F 73 °F (2009)
Min Temperature 21 °F 18 °F 0 °F (2002)
Degree Days  
Heating Degree Days 22    
Moisture  
Dew Point 17 °F    
Average Humidity 43    
Maximum Humidity 72    
Minimum Humidity 15    
Precipitation  
Precipitation 0.00 in - - ()
Sea Level Pressure  
Sea Level Pressure 30.30 in    
Wind  
Wind Speed 3 mph (SE)    
Max Wind Speed 12 mph    
Max Gust Speed -    
Visibility 10 miles    
Events      
Averages and records for this station are not official NWS values.
T = Trace of Precipitation, MM = Missing Value Source: NWS Daily Summary

Daily Weather History Graph

Daily Weather History Graph

Search for Another Location

Airport:

Trip Planner

Search our weather history database for the weather conditions in past years. The results will help you decide how hot, cold, wet, or windy it might be!

Date:

Astronomy

Mar. 02, 2013 Rise Set
Actual Time 6:43 AM MST 6:11 PM MST
Civil Twilight 6:17 AM MST 6:37 PM MST
Nautical Twilight 5:48 AM MST 7:06 PM MST
Astronomical Twilight 5:18 AM MST 7:36 PM MST
Moon 11:41 PM MST (3/2) 9:26 AM MST (3/2)
Length of Visible Light 12h 19m
Length of Day
11h 28m
Waning Gibbous, 73% of the Moon is Illuminated
Mar 2
Waning Gibbous
Mar 4
Last Quarter
Mar 11
New
Mar 19
First Quarter
Mar 27
Full

Hourly Weather History & Observations

Time (MST) Temp. Windchill Dew Point Humidity Pressure Visibility Wind Dir Wind Speed Gust Speed Precip Events Conditions
12:53 AM 27.0 °F - 15.1 °F 61% 30.37 in 10.0 mi Calm Calm - N/A   Clear
1:53 AM 21.0 °F 14.6 °F 10.0 °F 63% 30.39 in 10.0 mi ENE 4.6 mph - N/A   Clear
2:53 AM 24.1 °F 17.0 °F 12.9 °F 62% 30.35 in 10.0 mi NE 5.8 mph - N/A   Clear
3:53 AM 25.0 °F 19.3 °F 15.1 °F 66% 30.31 in 10.0 mi ENE 4.6 mph - N/A   Clear
4:53 AM 24.1 °F 19.7 °F 15.1 °F 69% 30.34 in 10.0 mi ENE 3.5 mph - N/A   Clear
5:53 AM 25.0 °F 19.3 °F 16.0 °F 69% 30.38 in 10.0 mi ENE 4.6 mph - N/A   Clear
6:53 AM 23.0 °F - 15.1 °F 72% 30.45 in 10.0 mi Calm Calm - N/A   Clear
7:53 AM 30.9 °F - 19.0 °F 61% 30.46 in 10.0 mi Calm Calm - N/A   Clear
8:53 AM 41.0 °F - 21.9 °F 47% 30.44 in 10.0 mi Calm Calm - N/A   Clear
9:53 AM 48.0 °F - 23.0 °F 37% 30.43 in 10.0 mi Calm Calm - N/A   Clear
10:53 AM 55.0 °F - 21.9 °F 28% 30.34 in 10.0 mi Calm Calm - N/A   Clear
11:53 AM 57.9 °F - 19.9 °F 23% 30.32 in 10.0 mi NW 4.6 mph - N/A   Clear
12:53 PM 63.0 °F - 18.0 °F 18% 30.25 in 10.0 mi SW 3.5 mph - N/A   Clear
1:53 PM 66.0 °F - 16.0 °F 15% 30.23 in 10.0 mi West 9.2 mph - N/A   Clear
2:53 PM 66.9 °F - 19.0 °F 16% 30.19 in 10.0 mi SW 9.2 mph - N/A   Clear
3:53 PM 66.9 °F - 21.9 °F 18% 30.17 in 10.0 mi SSW 9.2 mph - N/A   Clear
4:53 PM 66.0 °F - 19.9 °F 17% 30.17 in 10.0 mi SSW 11.5 mph - N/A   Clear
6:53 PM 53.1 °F - 18.0 °F 25% 30.25 in 10.0 mi SSW 8.1 mph - N/A   Clear
7:53 PM 52.0 °F - 19.0 °F 27% 30.20 in 10.0 mi SW 4.6 mph - N/A   Clear
8:53 PM 35.1 °F - 12.0 °F 39% 30.27 in 10.0 mi Calm Calm - N/A   Clear
9:53 PM 30.0 °F 26.5 °F 12.0 °F 47% 30.26 in 10.0 mi East 3.5 mph - N/A   Clear
10:53 PM 30.0 °F 26.5 °F 12.9 °F 49% 30.18 in 10.0 mi East 3.5 mph - N/A   Clear
11:53 PM 28.9 °F - 14.0 °F 54% 30.16 in 10.0 mi Calm Calm - N/A   Clear